<?xml version="1.0" encoding="UTF-8" standalone="no" ?>
<gpx xmlns="http://www.topografix.com/GPX/1/1" xmlns:xsi="http://www.w3.org/2001/XMLSchema-instance" xsi:schemaLocation="http://www.topografix.com/GPX/1/1 http://www.topografix.com/GPX/1/1/gpx.xsd" version="1.1" creator="VisuGPX - https://www.visugpx.com">
  <metadata>
    <name>Mimet Baou Traouqua V1 théorique</name>
    <desc><![CDATA[Parking Col Ste Anne, Baou Traouqua, St Savournin version 1 à reconnaitre]]></desc>
  </metadata>
  <trk>
    <name><![CDATA[20180409185059-WEHuA]]></name>
    <trkseg>
      <trkpt lat="43.41048" lon="5.49054">
        <ele>541</ele>
        <time>2018-04-09T18:31:02 02:00</time>
      </trkpt>
      <trkpt lat="43.41027" lon="5.49026">
        <ele>543</ele>
        <time>2018-04-09T18:31:07 02:00</time>
      </trkpt>
      <trkpt lat="43.41016" lon="5.48979">
        <ele>539</ele>
        <time>2018-04-09T18:31:12 02:00</time>
      </trkpt>
      <trkpt lat="43.40997" lon="5.48939">
        <ele>558</ele>
        <time>2018-04-09T18:31:17 02:00</time>
      </trkpt>
      <trkpt lat="43.40991" lon="5.4893">
        <ele>556</ele>
        <time>2018-04-09T18:31:22 02:00</time>
      </trkpt>
      <trkpt lat="43.40983" lon="5.48865">
        <ele>557</ele>
        <time>2018-04-09T18:31:27 02:00</time>
      </trkpt>
      <trkpt lat="43.40961" lon="5.48816">
        <ele>558</ele>
        <time>2018-04-09T18:31:32 02:00</time>
      </trkpt>
      <trkpt lat="43.40954" lon="5.48749">
        <ele>554</ele>
        <time>2018-04-09T18:31:37 02:00</time>
      </trkpt>
      <trkpt lat="43.40934" lon="5.48705">
        <ele>557</ele>
        <time>2018-04-09T18:31:42 02:00</time>
      </trkpt>
      <trkpt lat="43.40916" lon="5.48612">
        <ele>578</ele>
        <time>2018-04-09T18:31:47 02:00</time>
      </trkpt>
      <trkpt lat="43.40901" lon="5.48552">
        <ele>570</ele>
        <time>2018-04-09T18:31:52 02:00</time>
      </trkpt>
      <trkpt lat="43.40885" lon="5.48527">
        <ele>571</ele>
        <time>2018-04-09T18:31:57 02:00</time>
      </trkpt>
      <trkpt lat="43.4085" lon="5.48426">
        <ele>570</ele>
        <time>2018-04-09T18:32:02 02:00</time>
      </trkpt>
      <trkpt lat="43.40839" lon="5.48348">
        <ele>571</ele>
        <time>2018-04-09T18:32:07 02:00</time>
      </trkpt>
      <trkpt lat="43.40825" lon="5.48349">
        <ele>575</ele>
        <time>2018-04-09T18:32:12 02:00</time>
      </trkpt>
      <trkpt lat="43.40822" lon="5.48388">
        <ele>574</ele>
        <time>2018-04-09T18:32:17 02:00</time>
      </trkpt>
      <trkpt lat="43.40819" lon="5.4849">
        <ele>582</ele>
        <time>2018-04-09T18:32:22 02:00</time>
      </trkpt>
      <trkpt lat="43.4081" lon="5.48544">
        <ele>587</ele>
        <time>2018-04-09T18:32:27 02:00</time>
      </trkpt>
      <trkpt lat="43.4083" lon="5.48627">
        <ele>601</ele>
        <time>2018-04-09T18:32:32 02:00</time>
      </trkpt>
      <trkpt lat="43.40827" lon="5.4872">
        <ele>617</ele>
        <time>2018-04-09T18:32:37 02:00</time>
      </trkpt>
      <trkpt lat="43.40807" lon="5.48739">
        <ele>617</ele>
        <time>2018-04-09T18:32:42 02:00</time>
      </trkpt>
      <trkpt lat="43.40818" lon="5.48767">
        <ele>628</ele>
        <time>2018-04-09T18:32:47 02:00</time>
      </trkpt>
      <trkpt lat="43.40799" lon="5.49018">
        <ele>663</ele>
        <time>2018-04-09T18:32:52 02:00</time>
      </trkpt>
      <trkpt lat="43.40766" lon="5.49153">
        <ele>683</ele>
        <time>2018-04-09T18:32:57 02:00</time>
      </trkpt>
      <trkpt lat="43.40771" lon="5.49232">
        <ele>693</ele>
        <time>2018-04-09T18:33:02 02:00</time>
      </trkpt>
      <trkpt lat="43.40765" lon="5.49262">
        <ele>701</ele>
        <time>2018-04-09T18:33:07 02:00</time>
      </trkpt>
      <trkpt lat="43.40774" lon="5.49305">
        <ele>699</ele>
        <time>2018-04-09T18:33:12 02:00</time>
      </trkpt>
      <trkpt lat="43.40754" lon="5.49419">
        <ele>713</ele>
        <time>2018-04-09T18:33:17 02:00</time>
      </trkpt>
      <trkpt lat="43.4071" lon="5.4949">
        <ele>704</ele>
        <time>2018-04-09T18:33:22 02:00</time>
      </trkpt>
      <trkpt lat="43.40659" lon="5.49582">
        <ele>710</ele>
        <time>2018-04-09T18:33:27 02:00</time>
      </trkpt>
      <trkpt lat="43.40649" lon="5.49608">
        <ele>709</ele>
        <time>2018-04-09T18:33:32 02:00</time>
      </trkpt>
      <trkpt lat="43.40646" lon="5.49649">
        <ele>707</ele>
        <time>2018-04-09T18:33:37 02:00</time>
      </trkpt>
      <trkpt lat="43.40631" lon="5.49679">
        <ele>706</ele>
        <time>2018-04-09T18:33:42 02:00</time>
      </trkpt>
      <trkpt lat="43.40585" lon="5.49792">
        <ele>704</ele>
        <time>2018-04-09T18:33:47 02:00</time>
      </trkpt>
      <trkpt lat="43.40523" lon="5.49874">
        <ele>711</ele>
        <time>2018-04-09T18:33:52 02:00</time>
      </trkpt>
      <trkpt lat="43.40503" lon="5.49962">
        <ele>707</ele>
        <time>2018-04-09T18:33:57 02:00</time>
      </trkpt>
      <trkpt lat="43.40498" lon="5.50106">
        <ele>712</ele>
        <time>2018-04-09T18:34:02 02:00</time>
      </trkpt>
      <trkpt lat="43.40468" lon="5.50183">
        <ele>707</ele>
        <time>2018-04-09T18:34:07 02:00</time>
      </trkpt>
      <trkpt lat="43.40454" lon="5.5029">
        <ele>702</ele>
        <time>2018-04-09T18:34:12 02:00</time>
      </trkpt>
      <trkpt lat="43.40461" lon="5.50327">
        <ele>702</ele>
        <time>2018-04-09T18:34:17 02:00</time>
      </trkpt>
      <trkpt lat="43.40445" lon="5.50365">
        <ele>705</ele>
        <time>2018-04-09T18:34:22 02:00</time>
      </trkpt>
      <trkpt lat="43.40465" lon="5.50432">
        <ele>711</ele>
        <time>2018-04-09T18:34:27 02:00</time>
      </trkpt>
      <trkpt lat="43.40462" lon="5.5049">
        <ele>712</ele>
        <time>2018-04-09T18:34:32 02:00</time>
      </trkpt>
      <trkpt lat="43.40481" lon="5.50597">
        <ele>708</ele>
        <time>2018-04-09T18:34:37 02:00</time>
      </trkpt>
      <trkpt lat="43.4049" lon="5.50664">
        <ele>707</ele>
        <time>2018-04-09T18:34:42 02:00</time>
      </trkpt>
      <trkpt lat="43.40492" lon="5.50715">
        <ele>704</ele>
        <time>2018-04-09T18:34:47 02:00</time>
      </trkpt>
      <trkpt lat="43.40479" lon="5.50769">
        <ele>707</ele>
        <time>2018-04-09T18:34:52 02:00</time>
      </trkpt>
      <trkpt lat="43.40482" lon="5.50803">
        <ele>710</ele>
        <time>2018-04-09T18:34:57 02:00</time>
      </trkpt>
      <trkpt lat="43.40472" lon="5.5084">
        <ele>716</ele>
        <time>2018-04-09T18:35:02 02:00</time>
      </trkpt>
      <trkpt lat="43.40484" lon="5.50885">
        <ele>718</ele>
        <time>2018-04-09T18:35:07 02:00</time>
      </trkpt>
      <trkpt lat="43.40498" lon="5.51041">
        <ele>727</ele>
        <time>2018-04-09T18:35:12 02:00</time>
      </trkpt>
      <trkpt lat="43.40506" lon="5.51099">
        <ele>737</ele>
        <time>2018-04-09T18:35:17 02:00</time>
      </trkpt>
      <trkpt lat="43.40503" lon="5.51159">
        <ele>742</ele>
        <time>2018-04-09T18:35:22 02:00</time>
      </trkpt>
      <trkpt lat="43.40523" lon="5.51183">
        <ele>746</ele>
        <time>2018-04-09T18:35:27 02:00</time>
      </trkpt>
      <trkpt lat="43.40531" lon="5.51213">
        <ele>748</ele>
        <time>2018-04-09T18:35:32 02:00</time>
      </trkpt>
      <trkpt lat="43.40535" lon="5.51239">
        <ele>750</ele>
        <time>2018-04-09T18:35:37 02:00</time>
      </trkpt>
      <trkpt lat="43.40572" lon="5.51275">
        <ele>756</ele>
        <time>2018-04-09T18:35:42 02:00</time>
      </trkpt>
      <trkpt lat="43.4054" lon="5.51275">
        <ele>755</ele>
        <time>2018-04-09T18:35:47 02:00</time>
      </trkpt>
      <trkpt lat="43.40525" lon="5.51306">
        <ele>754</ele>
        <time>2018-04-09T18:35:52 02:00</time>
      </trkpt>
      <trkpt lat="43.40506" lon="5.51311">
        <ele>753</ele>
        <time>2018-04-09T18:35:57 02:00</time>
      </trkpt>
      <trkpt lat="43.4047" lon="5.5135">
        <ele>733</ele>
        <time>2018-04-09T18:36:02 02:00</time>
      </trkpt>
      <trkpt lat="43.40465" lon="5.51391">
        <ele>730</ele>
        <time>2018-04-09T18:36:07 02:00</time>
      </trkpt>
      <trkpt lat="43.40434" lon="5.51422">
        <ele>720</ele>
        <time>2018-04-09T18:36:12 02:00</time>
      </trkpt>
      <trkpt lat="43.40429" lon="5.51454">
        <ele>716</ele>
        <time>2018-04-09T18:36:17 02:00</time>
      </trkpt>
      <trkpt lat="43.40431" lon="5.51479">
        <ele>714</ele>
        <time>2018-04-09T18:36:22 02:00</time>
      </trkpt>
      <trkpt lat="43.40427" lon="5.51504">
        <ele>706</ele>
        <time>2018-04-09T18:36:27 02:00</time>
      </trkpt>
      <trkpt lat="43.4043" lon="5.51553">
        <ele>696</ele>
        <time>2018-04-09T18:36:32 02:00</time>
      </trkpt>
      <trkpt lat="43.40403" lon="5.51629">
        <ele>683</ele>
        <time>2018-04-09T18:36:37 02:00</time>
      </trkpt>
      <trkpt lat="43.40405" lon="5.51665">
        <ele>684</ele>
        <time>2018-04-09T18:36:42 02:00</time>
      </trkpt>
      <trkpt lat="43.4038" lon="5.5172">
        <ele>674</ele>
        <time>2018-04-09T18:36:47 02:00</time>
      </trkpt>
      <trkpt lat="43.40369" lon="5.51744">
        <ele>674</ele>
      </trkpt>
      <trkpt lat="43.40309" lon="5.51818">
        <ele>670</ele>
      </trkpt>
      <trkpt lat="43.40317" lon="5.51902">
        <ele>669</ele>
      </trkpt>
      <trkpt lat="43.40331" lon="5.52003">
        <ele>671</ele>
      </trkpt>
      <trkpt lat="43.40343" lon="5.51992">
        <ele>664</ele>
      </trkpt>
      <trkpt lat="43.40356" lon="5.51959">
        <ele>657</ele>
      </trkpt>
      <trkpt lat="43.40377" lon="5.51934">
        <ele>652</ele>
      </trkpt>
      <trkpt lat="43.40395" lon="5.51912">
        <ele>650</ele>
      </trkpt>
      <trkpt lat="43.40418" lon="5.51895">
        <ele>633</ele>
      </trkpt>
      <trkpt lat="43.40441" lon="5.51902">
        <ele>630</ele>
      </trkpt>
      <trkpt lat="43.40457" lon="5.51919">
        <ele>617</ele>
      </trkpt>
      <trkpt lat="43.40474" lon="5.51917">
        <ele>612</ele>
      </trkpt>
      <trkpt lat="43.40498" lon="5.51969">
        <ele>607</ele>
      </trkpt>
      <trkpt lat="43.40519" lon="5.51971">
        <ele>588</ele>
      </trkpt>
      <trkpt lat="43.40532" lon="5.51982">
        <ele>586</ele>
      </trkpt>
      <trkpt lat="43.40554" lon="5.52027">
        <ele>576</ele>
      </trkpt>
      <trkpt lat="43.40567" lon="5.52049">
        <ele>573</ele>
      </trkpt>
      <trkpt lat="43.40575" lon="5.52077">
        <ele>564</ele>
      </trkpt>
      <trkpt lat="43.40595" lon="5.52102">
        <ele>552</ele>
      </trkpt>
      <trkpt lat="43.40613" lon="5.52136">
        <ele>549</ele>
      </trkpt>
      <trkpt lat="43.4061" lon="5.5218">
        <ele>546</ele>
      </trkpt>
      <trkpt lat="43.40615" lon="5.52209">
        <ele>543</ele>
      </trkpt>
      <trkpt lat="43.40628" lon="5.52278">
        <ele>530</ele>
      </trkpt>
      <trkpt lat="43.40626" lon="5.52302">
        <ele>529</ele>
      </trkpt>
      <trkpt lat="43.40619" lon="5.52325">
        <ele>529</ele>
      </trkpt>
      <trkpt lat="43.40612" lon="5.52343">
        <ele>522</ele>
      </trkpt>
      <trkpt lat="43.40611" lon="5.52365">
        <ele>521</ele>
      </trkpt>
      <trkpt lat="43.40628" lon="5.52411">
        <ele>514</ele>
      </trkpt>
      <trkpt lat="43.40631" lon="5.52442">
        <ele>505</ele>
      </trkpt>
      <trkpt lat="43.40627" lon="5.52538">
        <ele>488</ele>
      </trkpt>
      <trkpt lat="43.40626" lon="5.52574">
        <ele>485</ele>
      </trkpt>
      <trkpt lat="43.40622" lon="5.52605">
        <ele>471</ele>
      </trkpt>
      <trkpt lat="43.40612" lon="5.52625">
        <ele>470</ele>
      </trkpt>
      <trkpt lat="43.40602" lon="5.52637">
        <ele>470</ele>
      </trkpt>
      <trkpt lat="43.40603" lon="5.52649">
        <ele>468</ele>
      </trkpt>
      <trkpt lat="43.40593" lon="5.52655">
        <ele>468</ele>
      </trkpt>
      <trkpt lat="43.40583" lon="5.52653">
        <ele>468</ele>
      </trkpt>
      <trkpt lat="43.40562" lon="5.52647">
        <ele>483</ele>
      </trkpt>
      <trkpt lat="43.40528" lon="5.52628">
        <ele>490</ele>
      </trkpt>
      <trkpt lat="43.40524" lon="5.52603">
        <ele>494</ele>
      </trkpt>
      <trkpt lat="43.40515" lon="5.52588">
        <ele>498</ele>
      </trkpt>
      <trkpt lat="43.40488" lon="5.52557">
        <ele>521</ele>
      </trkpt>
      <trkpt lat="43.40458" lon="5.52601">
        <ele>511</ele>
      </trkpt>
      <trkpt lat="43.40439" lon="5.52642">
        <ele>511</ele>
      </trkpt>
      <trkpt lat="43.40428" lon="5.52653">
        <ele>512</ele>
      </trkpt>
      <trkpt lat="43.40405" lon="5.52606">
        <ele>531</ele>
      </trkpt>
      <trkpt lat="43.40399" lon="5.52572">
        <ele>541</ele>
      </trkpt>
      <trkpt lat="43.40382" lon="5.52545">
        <ele>548</ele>
      </trkpt>
      <trkpt lat="43.40356" lon="5.52551">
        <ele>551</ele>
      </trkpt>
      <trkpt lat="43.4033" lon="5.52556">
        <ele>571</ele>
      </trkpt>
      <trkpt lat="43.4031" lon="5.52587">
        <ele>560</ele>
      </trkpt>
      <trkpt lat="43.40296" lon="5.52617">
        <ele>563</ele>
      </trkpt>
      <trkpt lat="43.40266" lon="5.5263">
        <ele>567</ele>
      </trkpt>
      <trkpt lat="43.40249" lon="5.52652">
        <ele>584</ele>
      </trkpt>
      <trkpt lat="43.40224" lon="5.52692">
        <ele>574</ele>
      </trkpt>
      <trkpt lat="43.40205" lon="5.52709">
        <ele>575</ele>
      </trkpt>
      <trkpt lat="43.40187" lon="5.52718">
        <ele>575</ele>
      </trkpt>
      <trkpt lat="43.40142" lon="5.52716">
        <ele>592</ele>
      </trkpt>
      <trkpt lat="43.40115" lon="5.52731">
        <ele>592</ele>
      </trkpt>
      <trkpt lat="43.40052" lon="5.52789">
        <ele>582</ele>
      </trkpt>
      <trkpt lat="43.40008" lon="5.52861">
        <ele>582</ele>
      </trkpt>
      <trkpt lat="43.39975" lon="5.52924">
        <ele>592</ele>
      </trkpt>
      <trkpt lat="43.39958" lon="5.52983">
        <ele>593</ele>
      </trkpt>
      <trkpt lat="43.39948" lon="5.53013">
        <ele>587</ele>
      </trkpt>
      <trkpt lat="43.39943" lon="5.53035">
        <ele>585</ele>
      </trkpt>
      <trkpt lat="43.39918" lon="5.53077">
        <ele>591</ele>
      </trkpt>
      <trkpt lat="43.39903" lon="5.53112">
        <ele>596</ele>
      </trkpt>
      <trkpt lat="43.39898" lon="5.53141">
        <ele>591</ele>
      </trkpt>
      <trkpt lat="43.39888" lon="5.53186">
        <ele>577</ele>
      </trkpt>
      <trkpt lat="43.39849" lon="5.53189">
        <ele>586</ele>
      </trkpt>
      <trkpt lat="43.3982" lon="5.5322">
        <ele>593</ele>
      </trkpt>
      <trkpt lat="43.39811" lon="5.5324">
        <ele>591</ele>
      </trkpt>
      <trkpt lat="43.39797" lon="5.53252">
        <ele>584</ele>
      </trkpt>
      <trkpt lat="43.39774" lon="5.53313">
        <ele>582</ele>
      </trkpt>
      <trkpt lat="43.3973" lon="5.5334">
        <ele>576</ele>
      </trkpt>
      <trkpt lat="43.39683" lon="5.53368">
        <ele>569</ele>
      </trkpt>
      <trkpt lat="43.39686" lon="5.5335">
        <ele>570</ele>
      </trkpt>
      <trkpt lat="43.39695" lon="5.53334">
        <ele>571</ele>
      </trkpt>
      <trkpt lat="43.39705" lon="5.53306">
        <ele>582</ele>
      </trkpt>
      <trkpt lat="43.39732" lon="5.53251">
        <ele>592</ele>
      </trkpt>
      <trkpt lat="43.39751" lon="5.53205">
        <ele>599</ele>
      </trkpt>
      <trkpt lat="43.39774" lon="5.53165">
        <ele>606</ele>
      </trkpt>
      <trkpt lat="43.39794" lon="5.53122">
        <ele>608</ele>
      </trkpt>
      <trkpt lat="43.39801" lon="5.53092">
        <ele>611</ele>
      </trkpt>
      <trkpt lat="43.39806" lon="5.53052">
        <ele>615</ele>
      </trkpt>
      <trkpt lat="43.39825" lon="5.53019">
        <ele>622</ele>
      </trkpt>
      <trkpt lat="43.39836" lon="5.53014">
        <ele>627</ele>
      </trkpt>
      <trkpt lat="43.39843" lon="5.53001">
        <ele>628</ele>
      </trkpt>
      <trkpt lat="43.39858" lon="5.53001">
        <ele>623</ele>
      </trkpt>
      <trkpt lat="43.39866" lon="5.52981">
        <ele>620</ele>
      </trkpt>
      <trkpt lat="43.39892" lon="5.52964">
        <ele>616</ele>
      </trkpt>
      <trkpt lat="43.39932" lon="5.52926">
        <ele>602</ele>
      </trkpt>
      <trkpt lat="43.39946" lon="5.52889">
        <ele>592</ele>
      </trkpt>
      <trkpt lat="43.39964" lon="5.52882">
        <ele>590</ele>
      </trkpt>
      <trkpt lat="43.39981" lon="5.52866">
        <ele>588</ele>
      </trkpt>
      <trkpt lat="43.40007" lon="5.52857">
        <ele>582</ele>
      </trkpt>
      <trkpt lat="43.40061" lon="5.52772">
        <ele>583</ele>
      </trkpt>
      <trkpt lat="43.40079" lon="5.52719">
        <ele>591</ele>
      </trkpt>
      <trkpt lat="43.40069" lon="5.52675">
        <ele>600</ele>
      </trkpt>
      <trkpt lat="43.40078" lon="5.52654">
        <ele>613</ele>
      </trkpt>
      <trkpt lat="43.40078" lon="5.52636">
        <ele>615</ele>
      </trkpt>
      <trkpt lat="43.40093" lon="5.52601">
        <ele>633</ele>
      </trkpt>
      <trkpt lat="43.40108" lon="5.52562">
        <ele>650</ele>
      </trkpt>
      <trkpt lat="43.40111" lon="5.52534">
        <ele>654</ele>
      </trkpt>
      <trkpt lat="43.40111" lon="5.52502">
        <ele>656</ele>
      </trkpt>
      <trkpt lat="43.4016" lon="5.52455">
        <ele>658</ele>
      </trkpt>
      <trkpt lat="43.40194" lon="5.52399">
        <ele>649</ele>
      </trkpt>
      <trkpt lat="43.40233" lon="5.52344">
        <ele>648</ele>
      </trkpt>
      <trkpt lat="43.40272" lon="5.52311">
        <ele>649</ele>
      </trkpt>
      <trkpt lat="43.40331" lon="5.52211">
        <ele>663</ele>
      </trkpt>
      <trkpt lat="43.40334" lon="5.52093">
        <ele>673</ele>
      </trkpt>
      <trkpt lat="43.40327" lon="5.51963">
        <ele>666</ele>
      </trkpt>
      <trkpt lat="43.40322" lon="5.51922">
        <ele>669</ele>
      </trkpt>
      <trkpt lat="43.4031" lon="5.51862">
        <ele>669</ele>
      </trkpt>
      <trkpt lat="43.40308" lon="5.51828">
        <ele>671</ele>
      </trkpt>
      <trkpt lat="43.40338" lon="5.51802">
        <ele>673</ele>
      </trkpt>
      <trkpt lat="43.40358" lon="5.51781">
        <ele>671</ele>
      </trkpt>
      <trkpt lat="43.40384" lon="5.51732">
        <ele>674</ele>
      </trkpt>
      <trkpt lat="43.40414" lon="5.51714">
        <ele>674</ele>
      </trkpt>
      <trkpt lat="43.40446" lon="5.51622">
        <ele>677</ele>
        <time>2018-04-09T18:37:22 02:00</time>
      </trkpt>
      <trkpt lat="43.40505" lon="5.51495">
        <ele>699</ele>
        <time>2018-04-09T18:37:27 02:00</time>
      </trkpt>
      <trkpt lat="43.40557" lon="5.5145">
        <ele>713</ele>
        <time>2018-04-09T18:37:32 02:00</time>
      </trkpt>
      <trkpt lat="43.40686" lon="5.51577">
        <ele>683</ele>
        <time>2018-04-09T18:37:37 02:00</time>
      </trkpt>
      <trkpt lat="43.40739" lon="5.51454">
        <ele>707</ele>
        <time>2018-04-09T18:37:42 02:00</time>
      </trkpt>
      <trkpt lat="43.40779" lon="5.51469">
        <ele>689</ele>
        <time>2018-04-09T18:37:47 02:00</time>
      </trkpt>
      <trkpt lat="43.40825" lon="5.51441">
        <ele>688</ele>
        <time>2018-04-09T18:37:52 02:00</time>
      </trkpt>
      <trkpt lat="43.40851" lon="5.51343">
        <ele>687</ele>
        <time>2018-04-09T18:37:57 02:00</time>
      </trkpt>
      <trkpt lat="43.40892" lon="5.51296">
        <ele>685</ele>
        <time>2018-04-09T18:38:02 02:00</time>
      </trkpt>
      <trkpt lat="43.40912" lon="5.51173">
        <ele>681</ele>
        <time>2018-04-09T18:38:07 02:00</time>
      </trkpt>
      <trkpt lat="43.40889" lon="5.51021">
        <ele>670</ele>
        <time>2018-04-09T18:38:12 02:00</time>
      </trkpt>
      <trkpt lat="43.40848" lon="5.50948">
        <ele>660</ele>
        <time>2018-04-09T18:38:17 02:00</time>
      </trkpt>
      <trkpt lat="43.40832" lon="5.50939">
        <ele>675</ele>
        <time>2018-04-09T18:38:22 02:00</time>
      </trkpt>
      <trkpt lat="43.40831" lon="5.50843">
        <ele>649</ele>
        <time>2018-04-09T18:38:27 02:00</time>
      </trkpt>
      <trkpt lat="43.40829" lon="5.50828">
        <ele>642</ele>
        <time>2018-04-09T18:38:32 02:00</time>
      </trkpt>
      <trkpt lat="43.40773" lon="5.50768">
        <ele>632</ele>
        <time>2018-04-09T18:38:37 02:00</time>
      </trkpt>
      <trkpt lat="43.40663" lon="5.50828">
        <ele>644</ele>
        <time>2018-04-09T18:38:42 02:00</time>
      </trkpt>
      <trkpt lat="43.40652" lon="5.50751">
        <ele>637</ele>
        <time>2018-04-09T18:38:47 02:00</time>
      </trkpt>
      <trkpt lat="43.40655" lon="5.50613">
        <ele>624</ele>
        <time>2018-04-09T18:38:52 02:00</time>
      </trkpt>
      <trkpt lat="43.40664" lon="5.50508">
        <ele>610</ele>
        <time>2018-04-09T18:38:57 02:00</time>
      </trkpt>
      <trkpt lat="43.40675" lon="5.50502">
        <ele>597</ele>
        <time>2018-04-09T18:39:02 02:00</time>
      </trkpt>
      <trkpt lat="43.40666" lon="5.50416">
        <ele>595</ele>
        <time>2018-04-09T18:39:07 02:00</time>
      </trkpt>
      <trkpt lat="43.40645" lon="5.50375">
        <ele>613</ele>
        <time>2018-04-09T18:39:12 02:00</time>
      </trkpt>
      <trkpt lat="43.40677" lon="5.50349">
        <ele>581</ele>
        <time>2018-04-09T18:39:17 02:00</time>
      </trkpt>
      <trkpt lat="43.40709" lon="5.5015">
        <ele>581</ele>
        <time>2018-04-09T18:39:22 02:00</time>
      </trkpt>
      <trkpt lat="43.40708" lon="5.50064">
        <ele>593</ele>
        <time>2018-04-09T18:39:27 02:00</time>
      </trkpt>
      <trkpt lat="43.40842" lon="5.4995">
        <ele>558</ele>
        <time>2018-04-09T18:39:32 02:00</time>
      </trkpt>
      <trkpt lat="43.40829" lon="5.49884">
        <ele>589</ele>
        <time>2018-04-09T18:39:37 02:00</time>
      </trkpt>
      <trkpt lat="43.40854" lon="5.4986">
        <ele>563</ele>
        <time>2018-04-09T18:39:42 02:00</time>
      </trkpt>
      <trkpt lat="43.40834" lon="5.498">
        <ele>571</ele>
        <time>2018-04-09T18:39:47 02:00</time>
      </trkpt>
      <trkpt lat="43.40926" lon="5.49534">
        <ele>578</ele>
        <time>2018-04-09T18:39:52 02:00</time>
      </trkpt>
      <trkpt lat="43.40965" lon="5.49493">
        <ele>579</ele>
        <time>2018-04-09T18:39:57 02:00</time>
      </trkpt>
      <trkpt lat="43.4102" lon="5.49362">
        <ele>560</ele>
        <time>2018-04-09T18:40:02 02:00</time>
      </trkpt>
      <trkpt lat="43.41035" lon="5.49266">
        <ele>562</ele>
        <time>2018-04-09T18:40:07 02:00</time>
      </trkpt>
      <trkpt lat="43.41044" lon="5.49238">
        <ele>558</ele>
        <time>2018-04-09T18:40:12 02:00</time>
      </trkpt>
      <trkpt lat="43.41038" lon="5.49107">
        <ele>549</ele>
        <time>2018-04-09T18:40:17 02:00</time>
      </trkpt>
      <trkpt lat="43.41027" lon="5.49045">
        <ele>544</ele>
        <time>2018-04-09T18:40:22 02:00</time>
      </trkpt>
      <trkpt lat="43.41048" lon="5.49053">
        <ele>541</ele>
        <time>2018-04-09T18:40:27 02:00</time>
      </trkpt>
      <trkpt lat="43.41054" lon="5.49051">
        <ele>539</ele>
        <time>2018-04-09T18:40:32 02:00</time>
      </trkpt>
      <trkpt lat="43.41044" lon="5.49051">
        <ele>541</ele>
        <time>2018-04-09T18:40:37 02:00</time>
      </trkpt>
    </trkseg>
  </trk>
</gpx>